User: anonymous
Location: Parc des �les de St-Timoth�e
(45.2924°N, 74.0481°W)
Time: 09:56:56
(UTC-04:00)
Language:

Cosmos 2173 Rocket - Orbit

View from above orbital plane
View from above orbital plane
View from above satellite
View from above satellite

Ground track
Ground track

The orbit data is extracted from the following two-line orbital elements,

1 21797U 91081B   14110.85451998  .00000089  00000-0  73495-4 0  4399
2 21797 082.9566 198.5847 0039329 080.7621 050.9126 13.77270159125638
Epoch (UTC): 20 April 2014 20:30:30
Eccentricity: 0.0039329
inclination: 82.9566°
perigee height: 944 km
apogee height: 1002 km
right ascension of ascending node: 198.5847°
argument of perigee: 80.7621°
revolutions per day: 13.77270159
mean anomaly at epoch: 50.9126°
orbit number at epoch: 12563

The dashed part of the orbit path shows where the satellite is in the earth's shadow,  

DLR